Al Hoceima, Morocco

12:23 PM WET on June 24, 2017 (GMT +0000)
Al Hoceima

Weather History for GMTA - September, 2013

Change the Weather History Date:

Saturday, September 28, 2013

  Actual Average Record
Temperature  
Mean Temperature 73 °F -  
Max Temperature 77 °F 71 °F 84 °F (2016)
Min Temperature 69 °F 59 °F 59 °F (2004)
Cooling Degree Days 8    
Growing Degree Days 23 (Base 50)    
Moisture  
Dew Point 68 °F    
Average Humidity 84    
Maximum Humidity 94    
Minimum Humidity 73    
Precipitation  
Precipitation 0.43 in - - ()
Sea Level Pressure  
Sea Level Pressure 29.96 in    
Wind  
Wind Speed 4 mph ()    
Max Wind Speed 12 mph    
Max Gust Speed -    
Visibility 5.5 miles    
Events Rain , Thunderstorm    
Averages and records for this station are not official NWS values.
T = Trace of Precipitation, MM = Missing Value Source: Averaged Metar Reports

Daily Weather History Graph

Daily Weather History Graph

Search for Another Location

Airport or City:

Trip Planner

Search our weather history database for the weather conditions in past years. The results will help you decide how hot, cold, wet, or windy it might be!

Date:

Astronomy

Sep. 28, 2013 Rise Set
Actual Time 7:07 AM WEST 7:03 PM WEST
Civil Twilight 6:42 AM WEST 7:28 PM WEST
Nautical Twilight 6:13 AM WEST 7:58 PM WEST
Astronomical Twilight 5:43 AM WEST 8:27 PM WEST
Moon 12:54 AM WEST (9/28) 3:02 PM WEST (9/28)
Length of Visible Light 12h 46m
Length of Day
11h 55m
Last Quarter, 38% of the Moon is Illuminated
Sep 28
Last Quarter
Oct 5
New
Oct 12
First Quarter
Oct 19
Full
Oct 27
Last Quarter

Hourly Weather History & Observations

Time (WEST) Temp. Dew Point Humidity Pressure Visibility Wind Dir Wind Speed Gust Speed Precip Events Conditions
1:00 AM 70 °F 63 °F 73% 29.95 in 6 mi West 2.3 mph - -   Scattered Clouds
1:00 AM 69.8 °F 62.6 °F 78% 29.95 in 6.2 mi West 2.3 mph - N/A   Mostly Cloudy
7:00 AM 71 °F 65 °F 75% 29.91 in 6 mi West 4.6 mph - -   Overcast
7:00 AM 71.6 °F 64.4 °F 78% 29.89 in 6.2 mi West 4.6 mph - N/A   Mostly Cloudy
7:35 AM 73.4 °F 69.8 °F 88% 29.95 in 5.0 mi NNE 11.5 mph - N/A   Mostly Cloudy
8:00 AM 73.4 °F 69.8 °F 88% 29.95 in 5.0 mi NNE 11.5 mph - N/A   Mostly Cloudy
9:00 AM 73.4 °F 68.0 °F 83% 29.95 in 5.0 mi NNW 6.9 mph - N/A   Mostly Cloudy
10:00 AM 73 °F 67 °F 77% 29.99 in 5 mi NNE 6.9 mph - -   Overcast
10:00 AM 73.4 °F 68.0 °F 83% 29.98 in 5.0 mi NNE 6.9 mph - N/A   Mostly Cloudy
12:00 PM 73.4 °F 68.0 °F 83% 29.98 in 5.0 mi NNW 9.2 mph - N/A   Mostly Cloudy
1:00 PM 74 °F 69 °F 78% 29.97 in 5 mi NW 4.6 mph - -   Overcast
1:00 PM 75.2 °F 68.0 °F 78% 29.95 in 5.0 mi NW 4.6 mph - N/A   Mostly Cloudy
2:00 PM 75.2 °F 68.0 °F 78% 29.95 in 5.0 mi WNW 4.6 mph - N/A   Mostly Cloudy
3:00 PM 77.0 °F 69.8 °F 78% 29.95 in 6.2 mi WNW 2.3 mph - N/A   Scattered Clouds
4:00 PM 76 °F 70 °F 76% 29.94 in 6 mi NNE 4.6 mph - -   Partly Cloudy
4:00 PM 77.0 °F 69.8 °F 78% 29.92 in 6.2 mi NNE 4.6 mph - N/A   Scattered Clouds
4:44 PM 73.4 °F 69.8 °F 88% 29.98 in 3.1 mi East 2.3 mph - N/A Rain , Thunderstorm Thunderstorms and Rain
5:00 PM 73.4 °F 69.8 °F 88% 29.95 in 3.1 mi West 4.6 mph - N/A Rain , Thunderstorm Thunderstorms and Rain
6:00 PM 71.6 °F 69.8 °F 94% 29.95 in 6.2 mi SSW 2.3 mph - N/A   Scattered Clouds
7:00 PM 71 °F 70 °F 94% 29.96 in 6 mi NNW 4.6 mph - - Rain Light Rain
7:00 PM 71.6 °F 69.8 °F 94% 29.95 in 6.2 mi NNW 4.6 mph - N/A   Partly Cloudy
8:00 PM 71.6 °F 69.8 °F 94% 29.98 in 6.2 mi SE 6.9 mph - N/A   Mostly Cloudy
9:00 PM 69.8 °F 68.0 °F 94% 29.98 in 6.2 mi West 2.3 mph - N/A   Scattered Clouds
10:00 PM 70 °F 68 °F 93% 30.01 in 6 mi ESE 4.6 mph - -   Partly Cloudy
10:00 PM 69.8 °F 68.0 °F 94% 30.01 in 6.2 mi ESE 4.6 mph - N/A   Scattered Clouds